Home > Weather > Anchorage > Past weeks

Flag for U.S.A. Weather for the Past 2 Weeks in Anchorage, Alaska, U.S.A.

Now
25 °F

Clear.


Feels Like: 25 °F
Forecast: 19 / 26 °F
Wind: No wind

Location: Lake Hood Seaplane

Current Time: Feb 7, 2016 at 6:16:10 AM

Latest Report: Feb 7, 2016 at 5:53 AM


Visibility: 10 mi

Pressure: 29.91 "Hg

Humidity: 81%

Dew point: 20 °F

Location of AnchorageLocation

Historic Weather in Anchorage — Graph

°F

Anchorage Temperature Yesterday

Maximum temperature yesterday: 32 °F (at 3:53 PM)
Minimum temperature yesterday: 24 °F (at 11:53 PM)
Average temperature yesterday: 28 °F

High & Low Weather Summary for the Past Weeks

 TemperatureHumidityPressure
High45 °F (Feb 4, 10:53 PM)96% (Jan 30, 9:53 AM)30.06 "Hg (Jan 30, 9:53 AM)
Low14 °F (Feb 2, 3:53 AM)44% (Feb 4, 10:53 PM)28.59 "Hg (Jan 27, 1:53 PM)
Average28 °F77%29.40 "Hg
* Reported Jan 23 4:53 AM — Feb 7 4:53 AM, Anchorage, Weather by CustomWeather, © 2016

Note: Actual official high and low records may vary slightly from our data, if they occured in-between our weather recording intervals... More about our weather records

Advertising

Anchorage Weather History for the Previous 24 Hours

 ConditionsComfort  
Time TempWeatherWind HumidityBarometerVisibility
4:53 AM
Sun, Feb 7
24 °FClear.3 mph84%29.93 "Hg10 mi
3:53 AM25 °FOvercast.No wind81%29.94 "Hg10 mi
2:53 AM27 °FOvercast.No wind75%29.96 "Hg10 mi
1:53 AM26 °FOvercast.3 mph81%29.98 "Hg10 mi
12:53 AM26 °FMostly cloudy.No wind84%29.97 "Hg10 mi
11:53 PM
Sat, Feb 6
24 °FPassing clouds.No wind84%29.97 "Hg10 mi
10:53 PM26 °FClear.No wind77%29.96 "Hg10 mi
9:53 PM27 °FClear.No wind78%29.95 "Hg10 mi
8:53 PM29 °FPassing clouds.6 mph75%29.93 "Hg10 mi
7:53 PM29 °FOvercast.No wind75%29.92 "Hg10 mi
6:53 PM30 °FOvercast.No wind72%29.90 "Hg10 mi
5:53 PM30 °FOvercast.3 mph79%29.88 "Hg10 mi
4:53 PM31 °FOvercast.6 mph73%29.85 "Hg10 mi
3:53 PM32 °FScattered clouds.5 mph75%29.83 "Hg10 mi
2:53 PM31 °FOvercast.3 mph79%29.82 "Hg10 mi
1:53 PM30 °FOvercast.3 mph75%29.80 "Hg10 mi
12:53 PM30 °FOvercast.6 mph75%29.78 "Hg10 mi
11:53 AM29 °FPartly sunny.No wind79%29.76 "Hg10 mi
10:53 AM27 °FOvercast.No wind81%29.74 "Hg10 mi
9:53 AM27 °FMore clouds than sun.No wind81%29.71 "Hg10 mi
8:53 AM26 °FOvercast.3 mph84%29.68 "Hg10 mi
7:53 AM27 °FMostly cloudy.6 mph72%29.64 "Hg10 mi
6:53 AM25 °FClear.No wind81%29.63 "Hg10 mi
Weather by CustomWeather, © 2016

See weather overviewHow to use our weather pages